contact:dominique.lefevre@mio.osupytheas.fr, maurice.libes@osupytheas.fr, didier.mallarino@osupytheas.fr
Project:EMSO http://www.emso-fr.org/EMSO-France
Depth: 2436.0 m
Title:EMSO Ligure Ouest : Data MII capteur CSTAR
DateTime,Latitude,Longitude,Instrument_Serial,Reference_Counts,Signal_Counts,Corrected_Signal_raw_counts,Calculated_Beam_c_inverse_meters,Internal_thermistor_counts
DateTime,Latitude,Longitude,Instrument_Serial,Reference_Counts,Signal_Counts,Corrected_Signal_raw_counts,Calculated_Beam_c_inverse_meters,Internal_thermistor_counts
2023-03-22T00:00:25,42.805,6.029,CST-1368DR,4346,4764,11642,01.175,551
2023-03-22T00:03:27,42.805,6.029,CST-1368DR,4346,4761,11634,01.177,551
2023-03-22T00:06:29,42.805,6.029,CST-1368DR,4346,4753,11617,01.183,551
2023-03-22T00:09:30,42.805,6.029,CST-1368DR,4346,4758,11628,01.180,551
2023-03-22T00:12:32,42.805,6.029,CST-1368DR,4346,4757,11626,01.180,551
2023-03-22T00:15:33,42.805,6.029,CST-1368DR,4346,4760,11633,01.178,551
2023-03-22T00:18:35,42.805,6.029,CST-1368DR,4346,4750,11608,01.186,551
2023-03-22T00:21:36,42.805,6.029,CST-1368DR,4346,4756,11622,01.182,551
2023-03-22T00:24:38,42.805,6.029,CST-1368DR,4346,4756,11623,01.181,551
2023-03-22T00:27:40,42.805,6.029,CST-1368DR,4346,4759,11630,01.179,551
2023-03-22T00:30:41,42.805,6.029,CST-1368DR,4346,4757,11625,01.181,551
2023-03-22T00:33:43,42.805,6.029,CST-1368DR,4346,4762,11638,01.176,551
2023-03-22T00:36:44,42.805,6.029,CST-1368DR,4346,4758,11629,01.179,551
2023-03-22T00:39:46,42.805,6.029,CST-1368DR,4346,4756,11623,01.181,551
2023-03-22T00:42:48,42.805,6.029,CST-1368DR,4346,4760,11633,01.178,551
2023-03-22T00:45:49,42.805,6.029,CST-1368DR,4346,4755,11622,01.182,551
2023-03-22T00:48:51,42.805,6.029,CST-1368DR,4346,4761,11636,01.177,551
2023-03-22T00:51:52,42.805,6.029,CST-1368DR,4346,4757,11626,01.180,551
2023-03-22T00:54:54,42.805,6.029,CST-1368DR,4346,4759,11631,01.178,551
2023-03-22T00:57:55,42.805,6.029,CST-1368DR,4346,4760,11634,01.177,551
2023-03-22T01:00:57,42.805,6.029,CST-1368DR,4346,4758,11629,01.179,551
2023-03-22T01:03:59,42.805,6.029,CST-1368DR,4346,4754,11619,01.183,551
2023-03-22T01:07:00,42.805,6.029,CST-1368DR,4346,4759,11630,01.179,551
2023-03-22T01:10:02,42.805,6.029,CST-1368DR,4346,4759,11630,01.179,551
2023-03-22T01:13:03,42.805,6.029,CST-1368DR,4346,4756,11624,01.181,551
2023-03-22T01:16:05,42.805,6.029,CST-1368DR,4346,4757,11626,01.180,551
2023-03-22T01:19:06,42.805,6.029,CST-1368DR,4346,4759,11630,01.179,551
2023-03-22T01:22:08,42.805,6.029,CST-1368DR,4346,4761,11635,01.177,551
2023-03-22T01:25:10,42.805,6.029,CST-1368DR,4346,4761,11634,01.177,551
2023-03-22T01:28:11,42.805,6.029,CST-1368DR,4346,4761,11634,01.177,551
2023-03-22T01:31:13,42.805,6.029,CST-1368DR,4346,4759,11631,01.178,551
2023-03-22T01:34:14,42.805,6.029,CST-1368DR,4346,4759,11631,01.178,551
2023-03-22T01:37:16,42.805,6.029,CST-1368DR,4346,4757,11625,01.181,551
2023-03-22T01:40:18,42.805,6.029,CST-1368DR,4346,4761,11634,01.177,551
2023-03-22T01:43:19,42.805,6.029,CST-1368DR,4346,4757,11625,01.181,551
2023-03-22T01:46:21,42.805,6.029,CST-1368DR,4346,4758,11629,01.179,551
2023-03-22T01:49:22,42.805,6.029,CST-1368DR,4346,4759,11631,01.178,551
2023-03-22T01:52:24,42.805,6.029,CST-1368DR,4346,4760,11632,01.178,551
2023-03-22T01:55:25,42.805,6.029,CST-1368DR,4346,4758,11627,01.180,551
2023-03-22T01:58:27,42.805,6.029,CST-1368DR,4346,4755,11622,01.182,551
2023-03-22T02:01:29,42.805,6.029,CST-1368DR,4346,4757,11626,01.180,551
2023-03-22T02:04:30,42.805,6.029,CST-1368DR,4346,4756,11624,01.181,551
2023-03-22T02:07:32,42.805,6.029,CST-1368DR,4346,4757,11625,01.181,551
2023-03-22T02:10:33,42.805,6.029,CST-1368DR,4346,4755,11622,01.182,551
2023-03-22T02:13:35,42.805,6.029,CST-1368DR,4346,4760,11634,01.177,551
2023-03-22T02:16:36,42.805,6.029,CST-1368DR,4346,4767,11649,01.172,551
2023-03-22T02:19:38,42.805,6.029,CST-1368DR,4346,4760,11634,01.177,551
2023-03-22T02:22:40,42.805,6.029,CST-1368DR,4346,4761,11636,01.177,551
2023-03-22T02:25:41,42.805,6.029,CST-1368DR,4346,4762,11638,01.176,551
2023-03-22T02:28:43,42.805,6.029,CST-1368DR,4346,4758,11628,01.180,551
2023-03-22T02:31:44,42.805,6.029,CST-1368DR,4346,4755,11622,01.182,551
2023-03-22T02:34:46,42.805,6.029,CST-1368DR,4346,4755,11620,01.182,551
2023-03-22T02:37:47,42.805,6.029,CST-1368DR,4346,4759,11631,01.178,551
2023-03-22T02:40:49,42.805,6.029,CST-1368DR,4346,4760,11633,01.178,551
2023-03-22T02:43:51,42.805,6.029,CST-1368DR,4346,4754,11619,01.183,551
2023-03-22T02:46:52,42.805,6.029,CST-1368DR,4346,4755,11621,01.182,551
2023-03-22T02:49:54,42.805,6.029,CST-1368DR,4346,4754,11617,01.183,551
2023-03-22T02:52:55,42.805,6.029,CST-1368DR,4346,4757,11625,01.181,551
2023-03-22T02:55:57,42.805,6.029,CST-1368DR,4346,4758,11629,01.179,551
2023-03-22T02:58:59,42.805,6.029,CST-1368DR,4346,4756,11623,01.181,551
2023-03-22T03:02:00,42.805,6.029,CST-1368DR,4346,4760,11632,01.178,551
2023-03-22T03:05:02,42.805,6.029,CST-1368DR,4346,4756,11624,01.181,551
2023-03-22T03:08:03,42.805,6.029,CST-1368DR,4346,4755,11621,01.182,551
2023-03-22T03:11:05,42.805,6.029,CST-1368DR,4346,4757,11627,01.180,551
2023-03-22T03:14:06,42.805,6.029,CST-1368DR,4346,4749,11605,01.187,551
2023-03-22T03:17:08,42.805,6.029,CST-1368DR,4346,4759,11630,01.179,551
2023-03-22T03:20:10,42.805,6.029,CST-1368DR,4346,4756,11622,01.182,552
2023-03-22T03:23:11,42.805,6.029,CST-1368DR,4346,4753,11615,01.184,551
2023-03-22T03:26:13,42.805,6.029,CST-1368DR,4346,4760,11633,01.178,551
2023-03-22T03:29:14,42.805,6.029,CST-1368DR,4346,4757,11626,01.180,551
2023-03-22T03:32:16,42.805,6.029,CST-1368DR,4346,4754,11619,01.183,551
2023-03-22T03:35:17,42.805,6.029,CST-1368DR,4346,4756,11622,01.182,551
2023-03-22T03:38:19,42.805,6.029,CST-1368DR,4346,4756,11624,01.181,551
2023-03-22T03:41:21,42.805,6.029,CST-1368DR,4346,4754,11619,01.183,551
2023-03-22T03:44:22,42.805,6.029,CST-1368DR,4346,4756,11624,01.181,551
2023-03-22T03:47:24,42.805,6.029,CST-1368DR,4346,4754,11619,01.183,551
2023-03-22T03:50:25,42.805,6.029,CST-1368DR,4346,4761,11635,01.177,551
2023-03-22T03:53:27,42.805,6.029,CST-1368DR,4346,4757,11625,01.181,551
2023-03-22T03:56:29,42.805,6.029,CST-1368DR,4346,4756,11623,01.181,551
2023-03-22T03:59:30,42.805,6.029,CST-1368DR,4346,4759,11631,01.178,551
2023-03-22T04:02:32,42.805,6.029,CST-1368DR,4346,4755,11620,01.182,551
2023-03-22T04:05:33,42.805,6.029,CST-1368DR,4346,4756,11623,01.181,551
2023-03-22T04:08:35,42.805,6.029,CST-1368DR,4346,4740,11583,01.195,551
2023-03-22T04:11:36,42.805,6.029,CST-1368DR,4346,4757,11626,01.180,551
2023-03-22T04:14:38,42.805,6.029,CST-1368DR,4346,4755,11620,01.182,551
2023-03-22T04:17:40,42.805,6.029,CST-1368DR,4346,4754,11618,01.183,551
2023-03-22T04:20:41,42.805,6.029,CST-1368DR,4346,4755,11620,01.182,551
2023-03-22T04:23:43,42.805,6.029,CST-1368DR,4346,4755,11622,01.182,551
2023-03-22T04:26:44,42.805,6.029,CST-1368DR,4346,4757,11626,01.180,551
2023-03-22T04:29:46,42.805,6.029,CST-1368DR,4346,4753,11616,01.184,551
2023-03-22T04:32:47,42.805,6.029,CST-1368DR,4346,4756,11623,01.181,551
2023-03-22T04:35:49,42.805,6.029,CST-1368DR,4346,4755,11620,01.182,551
2023-03-22T04:38:51,42.805,6.029,CST-1368DR,4346,4750,11609,01.186,551
2023-03-22T04:41:52,42.805,6.029,CST-1368DR,4346,4754,11619,01.183,551
2023-03-22T04:44:54,42.805,6.029,CST-1368DR,4346,4756,11623,01.181,551
2023-03-22T04:47:55,42.805,6.029,CST-1368DR,4346,4759,11630,01.179,551
2023-03-22T04:50:57,42.805,6.029,CST-1368DR,4346,4754,11619,01.183,551
2023-03-22T04:53:59,42.805,6.029,CST-1368DR,4346,4756,11624,01.181,551
2023-03-22T04:57:00,42.805,6.029,CST-1368DR,4346,4756,11622,01.182,551
2023-03-22T05:00:02,42.805,6.029,CST-1368DR,4346,4752,11614,01.184,551
2023-03-22T05:03:03,42.805,6.029,CST-1368DR,4346,4758,11629,01.179,551
2023-03-22T05:06:05,42.805,6.029,CST-1368DR,4346,4757,11625,01.181,551
2023-03-22T05:09:06,42.805,6.029,CST-1368DR,4346,4756,11624,01.181,551
2023-03-22T05:12:08,42.805,6.029,CST-1368DR,4346,4757,11626,01.180,551
2023-03-22T05:15:10,42.805,6.029,CST-1368DR,4346,4755,11622,01.182,551
2023-03-22T05:18:11,42.805,6.029,CST-1368DR,4346,4756,11623,01.181,551
2023-03-22T05:21:13,42.805,6.029,CST-1368DR,4346,4744,11595,01.191,551
2023-03-22T05:24:14,42.805,6.029,CST-1368DR,4346,4753,11616,01.184,551
2023-03-22T05:27:16,42.805,6.029,CST-1368DR,4346,4752,11614,01.184,551
2023-03-22T05:30:20,42.805,6.029,CST-1368DR,4346,4753,11616,01.184,551
2023-03-22T05:33:21,42.805,6.029,CST-1368DR,4346,4755,11621,01.182,551
2023-03-22T05:36:23,42.805,6.029,CST-1368DR,4346,4756,11623,01.181,551
2023-03-22T05:39:24,42.805,6.029,CST-1368DR,4346,4755,11621,01.182,551
2023-03-22T05:42:26,42.805,6.029,CST-1368DR,4346,4756,11623,01.181,551
2023-03-22T05:45:27,42.805,6.029,CST-1368DR,4346,4757,11625,01.181,551
2023-03-22T05:48:29,42.805,6.029,CST-1368DR,4346,4755,11622,01.182,551
2023-03-22T05:51:31,42.805,6.029,CST-1368DR,4346,4753,11615,01.184,551
2023-03-22T05:54:32,42.805,6.029,CST-1368DR,4346,4758,11628,01.180,551
2023-03-22T05:57:34,42.805,6.029,CST-1368DR,4346,4757,11625,01.181,551
2023-03-22T06:00:35,42.805,6.029,CST-1368DR,4346,4749,11607,01.187,551
2023-03-22T06:03:37,42.805,6.029,CST-1368DR,4346,4757,11627,01.180,551
2023-03-22T06:06:38,42.805,6.029,CST-1368DR,4346,4755,11621,01.182,551
2023-03-22T06:09:40,42.805,6.029,CST-1368DR,4346,4759,11631,01.178,551
2023-03-22T06:12:42,42.805,6.029,CST-1368DR,4346,4756,11623,01.181,551
2023-03-22T06:15:43,42.805,6.029,CST-1368DR,4346,4758,11629,01.179,551
2023-03-22T06:18:45,42.805,6.029,CST-1368DR,4346,4753,11616,01.184,551
2023-03-22T06:21:46,42.805,6.029,CST-1368DR,4346,4756,11623,01.181,551
2023-03-22T06:24:48,42.805,6.029,CST-1368DR,4346,4756,11624,01.181,551
2023-03-22T06:27:50,42.805,6.029,CST-1368DR,4346,4757,11625,01.181,551
2023-03-22T06:30:51,42.805,6.029,CST-1368DR,4346,4755,11621,01.182,551
2023-03-22T06:33:53,42.805,6.029,CST-1368DR,4346,4756,11623,01.181,551
2023-03-22T06:36:54,42.805,6.029,CST-1368DR,4346,4754,11619,01.183,551
2023-03-22T06:39:56,42.805,6.029,CST-1368DR,4346,4753,11615,01.184,551
2023-03-22T06:42:57,42.805,6.029,CST-1368DR,4346,4755,11622,01.182,551
2023-03-22T06:45:59,42.805,6.029,CST-1368DR,4346,4760,11633,01.178,551
2023-03-22T06:49:01,42.805,6.029,CST-1368DR,4346,4754,11617,01.183,551
2023-03-22T06:52:02,42.805,6.029,CST-1368DR,4346,4755,11620,01.182,551
2023-03-22T06:55:04,42.805,6.029,CST-1368DR,4346,4758,11627,01.180,551
2023-03-22T06:58:05,42.805,6.029,CST-1368DR,4346,4760,11632,01.178,551
2023-03-22T07:01:07,42.805,6.029,CST-1368DR,4346,4757,11626,01.180,551
2023-03-22T07:04:08,42.805,6.029,CST-1368DR,4346,4754,11619,01.183,551
2023-03-22T07:07:10,42.805,6.029,CST-1368DR,4346,4753,11616,01.184,551
2023-03-22T07:10:12,42.805,6.029,CST-1368DR,4346,4755,11621,01.182,551
2023-03-22T07:13:13,42.805,6.029,CST-1368DR,4346,4756,11623,01.181,551
2023-03-22T07:16:15,42.805,6.029,CST-1368DR,4346,4753,11615,01.184,551
2023-03-22T07:19:16,42.805,6.029,CST-1368DR,4346,4753,11616,01.184,551
2023-03-22T07:22:18,42.805,6.029,CST-1368DR,4346,4753,11616,01.184,551
2023-03-22T07:25:19,42.805,6.029,CST-1368DR,4346,4754,11617,01.183,551
2023-03-22T07:28:21,42.805,6.029,CST-1368DR,4346,4758,11627,01.180,551
2023-03-22T07:31:23,42.805,6.029,CST-1368DR,4346,4755,11620,01.182,551
2023-03-22T07:34:24,42.805,6.029,CST-1368DR,4346,4755,11622,01.182,551
2023-03-22T07:37:26,42.805,6.029,CST-1368DR,4346,4757,11625,01.181,551
2023-03-22T07:40:27,42.805,6.029,CST-1368DR,4346,4749,11607,01.187,551
2023-03-22T07:43:29,42.805,6.029,CST-1368DR,4346,4756,11623,01.181,551
2023-03-22T07:46:31,42.805,6.029,CST-1368DR,4346,4752,11614,01.184,551
2023-03-22T07:49:32,42.805,6.029,CST-1368DR,4346,4759,11630,01.179,551
2023-03-22T07:52:34,42.805,6.029,CST-1368DR,4346,4755,11621,01.182,551
2023-03-22T07:55:35,42.805,6.029,CST-1368DR,4346,4758,11629,01.179,551
2023-03-22T07:58:37,42.805,6.029,CST-1368DR,4346,4753,11615,01.184,551
2023-03-22T08:01:38,42.805,6.029,CST-1368DR,4346,4751,11610,01.186,551
2023-03-22T08:04:40,42.805,6.029,CST-1368DR,4346,4754,11618,01.183,551
2023-03-22T08:07:42,42.805,6.029,CST-1368DR,4346,4754,11617,01.183,551
2023-03-22T08:10:43,42.805,6.029,CST-1368DR,4346,4756,11622,01.182,551
2023-03-22T08:13:45,42.805,6.029,CST-1368DR,4346,4756,11624,01.181,551
2023-03-22T08:16:46,42.805,6.029,CST-1368DR,4346,4757,11626,01.180,551
2023-03-22T08:19:48,42.805,6.029,CST-1368DR,4346,4757,11626,01.180,551
2023-03-22T08:22:49,42.805,6.029,CST-1368DR,4346,4757,11627,01.180,551
2023-03-22T08:25:51,42.805,6.029,CST-1368DR,4346,4751,11611,01.185,551
2023-03-22T08:28:53,42.805,6.029,CST-1368DR,4346,4747,11600,01.189,551
2023-03-22T08:31:54,42.805,6.029,CST-1368DR,4346,4753,11616,01.184,551
2023-03-22T08:34:56,42.805,6.029,CST-1368DR,4346,4753,11615,01.184,551
2023-03-22T08:37:57,42.805,6.029,CST-1368DR,4346,4755,11621,01.182,551
2023-03-22T08:40:59,42.805,6.029,CST-1368DR,4346,4754,11619,01.183,551
2023-03-22T08:44:01,42.805,6.029,CST-1368DR,4346,4756,11623,01.181,551
2023-03-22T08:47:02,42.805,6.029,CST-1368DR,4346,4760,11634,01.177,551
2023-03-22T08:50:04,42.805,6.029,CST-1368DR,4346,4756,11624,01.181,551
2023-03-22T08:53:05,42.805,6.029,CST-1368DR,4346,4757,11627,01.180,551
2023-03-22T08:56:07,42.805,6.029,CST-1368DR,4346,4757,11626,01.180,551
2023-03-22T08:59:08,42.805,6.029,CST-1368DR,4346,4755,11620,01.182,551
2023-03-22T09:02:10,42.805,6.029,CST-1368DR,4346,4757,11626,01.180,551
2023-03-22T09:05:12,42.805,6.029,CST-1368DR,4345,4745,11600,01.189,551
2023-03-22T09:08:13,42.805,6.029,CST-1368DR,4345,4750,11610,01.186,551
2023-03-22T09:11:15,42.805,6.029,CST-1368DR,4346,4765,11645,01.174,551
2023-03-22T09:14:16,42.805,6.029,CST-1368DR,4346,4752,11613,01.185,551
2023-03-22T09:17:18,42.805,6.029,CST-1368DR,4345,4753,11619,01.183,551
2023-03-22T09:20:19,42.805,6.029,CST-1368DR,4345,4757,11628,01.180,551
2023-03-22T09:23:21,42.805,6.029,CST-1368DR,4346,4757,11625,01.181,551
2023-03-22T09:26:23,42.805,6.029,CST-1368DR,4346,4758,11627,01.180,551
2023-03-22T09:29:24,42.805,6.029,CST-1368DR,4346,4758,11627,01.180,551
2023-03-22T09:32:26,42.805,6.029,CST-1368DR,4346,4757,11627,01.180,551
2023-03-22T09:35:27,42.805,6.029,CST-1368DR,4346,4749,11605,01.187,551
2023-03-22T09:38:29,42.805,6.029,CST-1368DR,4346,4753,11615,01.184,551
2023-03-22T09:41:30,42.805,6.029,CST-1368DR,4346,4755,11621,01.182,551
2023-03-22T09:44:32,42.805,6.029,CST-1368DR,4345,4746,11602,01.188,551
2023-03-22T09:47:34,42.805,6.029,CST-1368DR,4346,4763,11640,01.175,551
2023-03-22T09:50:35,42.805,6.029,CST-1368DR,4346,4757,11625,01.181,551
2023-03-22T09:53:37,42.805,6.029,CST-1368DR,4345,4742,11591,01.192,551
2023-03-22T09:56:38,42.805,6.029,CST-1368DR,4346,4757,11627,01.180,551
2023-03-22T09:59:40,42.805,6.029,CST-1368DR,4346,4757,11626,01.180,551
2023-03-22T10:02:42,42.805,6.029,CST-1368DR,4346,4750,11608,01.186,551
2023-03-22T10:05:43,42.805,6.029,CST-1368DR,4346,4756,11623,01.181,551
2023-03-22T10:08:45,42.805,6.029,CST-1368DR,4346,4759,11630,01.179,551
2023-03-22T10:11:46,42.805,6.029,CST-1368DR,4346,4758,11627,01.180,551
2023-03-22T10:14:48,42.805,6.029,CST-1368DR,4346,4760,11632,01.178,551
2023-03-22T10:17:49,42.805,6.029,CST-1368DR,4346,4756,11622,01.182,551
2023-03-22T10:20:51,42.805,6.029,CST-1368DR,4346,4757,11626,01.180,551
2023-03-22T10:23:53,42.805,6.029,CST-1368DR,4346,4751,11611,01.185,551
2023-03-22T10:26:54,42.805,6.029,CST-1368DR,4346,4752,11614,01.184,551
2023-03-22T10:29:56,42.805,6.029,CST-1368DR,4346,4757,11626,01.180,551
2023-03-22T10:32:57,42.805,6.029,CST-1368DR,4346,4759,11630,01.179,551
2023-03-22T10:35:59,42.805,6.029,CST-1368DR,4346,4760,11633,01.178,551
2023-03-22T10:39:01,42.805,6.029,CST-1368DR,4345,4751,11614,01.184,551
2023-03-22T10:42:02,42.805,6.029,CST-1368DR,4346,4753,11616,01.184,551
2023-03-22T10:45:04,42.805,6.029,CST-1368DR,4346,4762,11638,01.176,551
2023-03-22T10:48:05,42.805,6.029,CST-1368DR,4345,4742,11592,01.192,551
2023-03-22T10:51:07,42.805,6.029,CST-1368DR,4346,4756,11623,01.181,551
2023-03-22T10:54:08,42.805,6.029,CST-1368DR,4345,4757,11629,01.179,551
2023-03-22T10:57:10,42.805,6.029,CST-1368DR,4345,4756,11625,01.181,551
2023-03-22T11:00:12,42.805,6.029,CST-1368DR,4345,4753,11619,01.183,551
2023-03-22T11:03:13,42.805,6.029,CST-1368DR,4346,4755,11621,01.182,551
2023-03-22T11:06:15,42.805,6.029,CST-1368DR,4346,4760,11632,01.178,551
2023-03-22T11:09:16,42.805,6.029,CST-1368DR,4346,4757,11626,01.180,551
2023-03-22T11:12:18,42.805,6.029,CST-1368DR,4345,4752,11616,01.184,551
2023-03-22T11:15:19,42.805,6.029,CST-1368DR,4345,4757,11628,01.180,551
2023-03-22T11:18:21,42.805,6.029,CST-1368DR,4345,4758,11632,01.178,551
2023-03-22T11:21:23,42.805,6.029,CST-1368DR,4345,4751,11613,01.185,551
2023-03-22T11:24:24,42.805,6.029,CST-1368DR,4346,4758,11627,01.180,551
2023-03-22T11:27:26,42.805,6.029,CST-1368DR,4346,4755,11622,01.182,551
2023-03-22T11:30:29,42.805,6.029,CST-1368DR,4346,4756,11624,01.181,551
2023-03-22T11:33:30,42.805,6.029,CST-1368DR,4345,4758,11630,01.179,551
2023-03-22T11:36:32,42.805,6.029,CST-1368DR,4345,4753,11617,01.183,551
2023-03-22T11:39:34,42.805,6.029,CST-1368DR,4345,4758,11630,01.179,551
2023-03-22T11:42:35,42.805,6.029,CST-1368DR,4345,4757,11628,01.180,551
2023-03-22T11:45:37,42.805,6.029,CST-1368DR,4346,4757,11627,01.180,551
2023-03-22T11:48:38,42.805,6.029,CST-1368DR,4345,4751,11613,01.185,551
2023-03-22T11:51:40,42.805,6.029,CST-1368DR,4345,4740,11587,01.194,551
2023-03-22T11:54:41,42.805,6.029,CST-1368DR,4345,4748,11605,01.187,551
2023-03-22T11:57:43,42.805,6.029,CST-1368DR,4346,4754,11619,01.183,551
2023-03-22T12:00:45,42.805,6.029,CST-1368DR,4346,4750,11608,01.186,551
2023-03-22T12:03:46,42.805,6.029,CST-1368DR,4346,4748,11605,01.187,551
2023-03-22T12:06:48,42.805,6.029,CST-1368DR,4345,4751,11613,01.185,551
2023-03-22T12:09:49,42.805,6.029,CST-1368DR,4345,4754,11621,01.182,551
2023-03-22T12:12:51,42.805,6.029,CST-1368DR,4345,4738,11581,01.196,551
2023-03-22T12:15:53,42.805,6.029,CST-1368DR,4345,4745,11600,01.189,551
2023-03-22T12:18:54,42.805,6.029,CST-1368DR,4345,4742,11592,01.192,551
2023-03-22T12:21:56,42.805,6.029,CST-1368DR,4345,4752,11616,01.184,551
2023-03-22T12:24:57,42.805,6.029,CST-1368DR,4345,4746,11602,01.188,551
2023-03-22T12:27:59,42.805,6.029,CST-1368DR,4345,4747,11603,01.188,551
2023-03-22T12:31:00,42.805,6.029,CST-1368DR,4345,4750,11612,01.185,551
2023-03-22T12:34:02,42.805,6.029,CST-1368DR,4345,4743,11593,01.192,551
2023-03-22T12:37:04,42.805,6.029,CST-1368DR,4345,4749,11609,01.186,551
2023-03-22T12:40:05,42.805,6.029,CST-1368DR,4345,4747,11605,01.187,551
2023-03-22T12:43:07,42.805,6.029,CST-1368DR,4346,4752,11613,01.185,551
2023-03-22T12:46:08,42.805,6.029,CST-1368DR,4345,4757,11629,01.179,551
2023-03-22T12:49:10,42.805,6.029,CST-1368DR,4345,4758,11632,01.178,551
2023-03-22T12:52:11,42.805,6.029,CST-1368DR,4345,4740,11586,01.194,551
2023-03-22T12:55:13,42.805,6.029,CST-1368DR,4345,4740,11587,01.194,551
2023-03-22T12:58:15,42.805,6.029,CST-1368DR,4345,4742,11592,01.192,551
2023-03-22T13:01:16,42.805,6.029,CST-1368DR,4345,4749,11608,01.186,551
2023-03-22T13:04:18,42.805,6.029,CST-1368DR,4345,4755,11622,01.182,551
2023-03-22T13:07:19,42.805,6.029,CST-1368DR,4345,4746,11602,01.188,551
2023-03-22T13:10:21,42.805,6.029,CST-1368DR,4345,4744,11595,01.191,551
2023-03-22T13:13:23,42.805,6.029,CST-1368DR,4345,4751,11613,01.185,551
2023-03-22T13:16:24,42.805,6.029,CST-1368DR,4345,4747,11603,01.188,551
2023-03-22T13:19:26,42.805,6.029,CST-1368DR,4345,4740,11588,01.193,551
2023-03-22T13:22:27,42.805,6.029,CST-1368DR,4345,4750,11610,01.186,551
2023-03-22T13:25:29,42.805,6.029,CST-1368DR,4345,4741,11589,01.193,551
2023-03-22T13:28:30,42.805,6.029,CST-1368DR,4345,4744,11596,01.191,551
2023-03-22T13:31:32,42.805,6.029,CST-1368DR,4345,4746,11602,01.188,551
2023-03-22T13:34:34,42.805,6.029,CST-1368DR,4345,4745,11599,01.190,551
2023-03-22T13:37:35,42.805,6.029,CST-1368DR,4345,4742,11592,01.192,551
2023-03-22T13:40:37,42.805,6.029,CST-1368DR,4345,4739,11585,01.194,551
2023-03-22T13:43:38,42.805,6.029,CST-1368DR,4345,4738,11582,01.195,551
2023-03-22T13:46:40,42.805,6.029,CST-1368DR,4345,4733,11569,01.200,551
2023-03-22T13:49:41,42.805,6.029,CST-1368DR,4345,4744,11595,01.191,551
2023-03-22T13:52:43,42.805,6.029,CST-1368DR,4345,4744,11597,01.190,551
2023-03-22T13:55:45,42.805,6.029,CST-1368DR,4345,4742,11591,01.192,551
2023-03-22T13:58:46,42.805,6.029,CST-1368DR,4345,4741,11589,01.193,551
2023-03-22T14:01:48,42.805,6.029,CST-1368DR,4345,4747,11604,01.188,551
2023-03-22T14:04:49,42.805,6.029,CST-1368DR,4345,4743,11593,01.192,552
2023-03-22T14:07:51,42.805,6.029,CST-1368DR,4345,4741,11589,01.193,551
2023-03-22T14:10:52,42.805,6.029,CST-1368DR,4345,4742,11592,01.192,551
2023-03-22T14:13:54,42.805,6.029,CST-1368DR,4345,4744,11595,01.191,551
2023-03-22T14:16:56,42.805,6.029,CST-1368DR,4345,4741,11589,01.193,551
2023-03-22T14:19:57,42.805,6.029,CST-1368DR,4345,4741,11589,01.193,551
2023-03-22T14:22:59,42.805,6.029,CST-1368DR,4345,4741,11588,01.193,551
2023-03-22T14:26:00,42.805,6.029,CST-1368DR,4345,4740,11587,01.194,551
2023-03-22T14:29:02,42.805,6.029,CST-1368DR,4345,4741,11589,01.193,551
2023-03-22T14:32:04,42.805,6.029,CST-1368DR,4345,4742,11592,01.192,551
2023-03-22T14:35:05,42.805,6.029,CST-1368DR,4345,4738,11583,01.195,551
2023-03-22T14:38:07,42.805,6.029,CST-1368DR,4345,4743,11595,01.191,551
2023-03-22T14:41:08,42.805,6.029,CST-1368DR,4345,4741,11588,01.193,551
2023-03-22T14:44:10,42.805,6.029,CST-1368DR,4345,4737,11578,01.197,551
2023-03-22T14:47:11,42.805,6.029,CST-1368DR,4345,4742,11591,01.192,551
2023-03-22T14:50:13,42.805,6.029,CST-1368DR,4345,4743,11595,01.191,551
2023-03-22T14:53:15,42.805,6.029,CST-1368DR,4345,4746,11602,01.188,551
2023-03-22T14:56:16,42.805,6.029,CST-1368DR,4345,4749,11608,01.186,551
2023-03-22T14:59:18,42.805,6.029,CST-1368DR,4345,4744,11595,01.191,551
2023-03-22T15:02:19,42.805,6.029,CST-1368DR,4345,4748,11606,01.187,551
2023-03-22T15:05:21,42.805,6.029,CST-1368DR,4345,4748,11605,01.187,551
2023-03-22T15:08:23,42.805,6.029,CST-1368DR,4345,4743,11595,01.191,551
2023-03-22T15:11:24,42.805,6.029,CST-1368DR,4345,4743,11594,01.191,551
2023-03-22T15:14:26,42.805,6.029,CST-1368DR,4345,4741,11589,01.193,551
2023-03-22T15:17:27,42.805,6.029,CST-1368DR,4345,4742,11591,01.192,551
2023-03-22T15:20:29,42.805,6.029,CST-1368DR,4345,4738,11581,01.196,551
2023-03-22T15:23:30,42.805,6.029,CST-1368DR,4345,4739,11583,01.195,551
2023-03-22T15:26:32,42.805,6.029,CST-1368DR,4345,4743,11593,01.192,551
2023-03-22T15:29:34,42.805,6.029,CST-1368DR,4345,4749,11608,01.186,551
2023-03-22T15:32:35,42.805,6.029,CST-1368DR,4345,4741,11588,01.193,551
2023-03-22T15:35:37,42.805,6.029,CST-1368DR,4345,4741,11589,01.193,551
2023-03-22T15:38:38,42.805,6.029,CST-1368DR,4345,4742,11591,01.192,551
2023-03-22T15:41:40,42.805,6.029,CST-1368DR,4345,4737,11579,01.196,551
2023-03-22T15:44:41,42.805,6.029,CST-1368DR,4345,4743,11595,01.191,551
2023-03-22T15:47:43,42.805,6.029,CST-1368DR,4345,4739,11584,01.195,551
2023-03-22T15:50:45,42.805,6.029,CST-1368DR,4345,4743,11593,01.192,551
2023-03-22T15:53:46,42.805,6.029,CST-1368DR,4345,4742,11591,01.192,551
2023-03-22T15:56:48,42.805,6.029,CST-1368DR,4345,4736,11577,01.197,551
2023-03-22T15:59:49,42.805,6.029,CST-1368DR,4345,4739,11584,01.195,551
2023-03-22T16:02:51,42.805,6.029,CST-1368DR,4345,4739,11584,01.195,551
2023-03-22T16:05:52,42.805,6.029,CST-1368DR,4345,4742,11591,01.192,551
2023-03-22T16:08:54,42.805,6.029,CST-1368DR,4345,4742,11592,01.192,551
2023-03-22T16:11:56,42.805,6.029,CST-1368DR,4345,4744,11595,01.191,551
2023-03-22T16:14:57,42.805,6.029,CST-1368DR,4345,4742,11592,01.192,551
2023-03-22T16:17:59,42.805,6.029,CST-1368DR,4345,4742,11592,01.192,551
2023-03-22T16:21:00,42.805,6.029,CST-1368DR,4345,4742,11591,01.192,551
2023-03-22T16:24:02,42.805,6.029,CST-1368DR,4345,4737,11580,01.196,551
2023-03-22T16:27:04,42.805,6.029,CST-1368DR,4345,4741,11589,01.193,551
2023-03-22T16:30:05,42.805,6.029,CST-1368DR,4345,4739,11584,01.195,551
2023-03-22T16:33:07,42.805,6.029,CST-1368DR,4345,4742,11591,01.192,551
2023-03-22T16:36:08,42.805,6.029,CST-1368DR,4345,4742,11592,01.192,551